DateTimeUTC,F1_A11,F1_S11,BsB_S11,BsG_S11,BsR_S11,BbsB_S11,BbsG_S11,BbsR_S11,BaB_A11,BaG_A11,BaR_A11,Tu_S11,T_S11,Uu_S11,U_S11,P_S11,T1_A11
2021-12-21T15:00:00Z,00000200,20000000,,,,,,,-000.28,-000.19,0000.04,21.1,27.6,02.5,01.7,0668.1,31.5
2021-12-21T15:01:00Z,00000200,20000000,,,,,,,-000.03,0000.01,-000.01,21.1,27.6,02.5,01.7,0668.1,31.5
2021-12-21T15:02:00Z,00000200,20000000,,,,,,,0000.09,-000.08,-000.09,21.1,27.6,02.5,01.7,0668.1,31.5
2021-12-21T15:03:00Z,00000200,60000000,,,,,,,-000.03,-000.10,0000.15,21.1,27.7,02.5,01.7,0668.1,31.5
2021-12-21T15:04:00Z,00000200,40000000,0000.36,0000.14,0000.18,0000.49,-000.15,0000.21,-000.29,0000.15,-000.01,21.2,27.5,02.3,01.6,0669.0,31.5
2021-12-21T15:05:00Z,00000200,00000000,0000.28,0000.09,0000.18,0000.47,0000.40,0000.21,0000.07,-000.14,-000.19,21.2,27.5,02.3,01.6,0669.0,31.5
2021-12-21T15:06:00Z,00000200,00000000,0000.81,0000.32,-000.03,0000.46,0000.20,0000.43,0000.21,-000.08,0000.21,21.2,27.5,02.4,01.6,0669.0,31.5
2021-12-21T15:07:00Z,00000200,00000000,0000.98,0000.30,0000.04,0000.70,0000.06,0000.06,0000.01,0000.53,-000.27,21.2,27.5,02.3,01.6,0669.0,31.5
2021-12-21T15:08:00Z,00000200,00000000,-000.16,0000.24,0000.01,0000.44,0000.20,-000.25,-000.32,-000.24,0000.14,21.1,27.4,02.3,01.6,0669.0,31.5
2021-12-21T15:09:00Z,00000200,00000000,0001.42,0000.28,-000.06,0000.51,0000.02,0000.02,0000.35,-000.20,0000.22,21.1,27.4,02.2,01.5,0669.1,31.5
2021-12-21T15:10:00Z,00000200,00000000,0000.52,-000.19,0000.09,0000.58,0000.40,-000.17,0000.08,0000.12,-000.03,21.1,27.4,02.3,01.6,0669.0,31.5
2021-12-21T15:11:00Z,00000200,00000000,0000.56,0000.27,0000.12,0000.29,0000.14,0000.19,0000.05,-000.08,0000.20,21.1,27.4,02.2,01.5,0669.0,31.5
2021-12-21T15:12:00Z,00000200,00000000,0001.43,-000.08,0000.01,0000.46,0000.22,0000.09,0000.02,0000.10,0000.03,21.2,27.4,02.3,01.6,0669.0,31.5
2021-12-21T15:13:00Z,00000200,01000000,0000.51,0000.07,-000.02,0000.79,0000.13,-000.34,-000.21,0000.19,-000.12,21.3,27.4,02.1,01.5,0669.1,31.5
2021-12-21T15:14:00Z,00000200,00000000,0001.14,0000.29,-000.09,0000.85,0000.17,-000.22,0000.22,0000.07,0000.14,21.3,27.5,02.1,01.4,0669.1,31.5
2021-12-21T15:15:00Z,00000200,00000000,0000.26,0000.16,0000.11,-000.38,-000.07,0000.38,-000.13,-000.13,0000.31,21.4,27.5,02.1,01.4,0669.1,31.6
2021-12-21T15:16:00Z,00000200,01000000,0000.93,0000.28,-000.39,0000.54,0000.15,-000.29,-000.03,-000.39,-000.49,21.5,27.6,02.0,01.4,0669.1,31.6
2021-12-21T15:17:00Z,00000200,01000000,0000.94,0000.17,-000.17,0000.39,-000.06,0000.16,-000.45,0000.04,0000.30,21.5,27.6,01.9,01.3,0669.1,31.6
2021-12-21T15:18:00Z,00000200,00000000,0000.03,0000.07,-000.34,-000.09,0000.14,-000.13,0000.25,-000.12,-000.34,21.5,27.6,01.9,01.3,0669.1,31.6
2021-12-21T15:19:00Z,00000200,01000000,0001.51,0000.50,-000.07,0000.63,0000.23,0000.10,-000.20,0000.09,-000.13,21.5,27.6,01.8,01.2,0669.1,31.6
2021-12-21T15:20:00Z,00000200,01000000,0000.56,-000.15,-000.28,0000.63,0000.52,-000.02,0000.12,0000.22,0000.09,21.4,27.6,01.8,01.3,0669.1,31.6
2021-12-21T15:21:00Z,00000200,01000000,0001.13,0000.19,-000.10,0000.22,0000.01,-000.06,-000.40,-000.16,-000.10,21.4,27.6,01.8,01.2,0669.1,31.6
2021-12-21T15:22:00Z,00000200,01000000,0000.69,-000.06,-000.11,0000.01,0000.05,0000.11,0000.27,-000.03,0000.12,21.4,27.6,01.7,01.1,0669.0,31.6
2021-12-21T15:23:00Z,00000200,01000000,-000.01,0000.12,0000.16,0000.76,0000.36,0000.15,-000.18,-000.39,-000.25,21.3,27.6,01.7,01.2,0669.0,31.6
2021-12-21T15:24:00Z,00000200,01000000,0000.38,0000.08,-000.11,-000.41,0000.08,-000.25,-000.06,0000.32,0000.03,21.3,27.6,01.6,01.1,0669.0,31.6
2021-12-21T15:25:00Z,00000200,01000000,0000.75,0000.43,0000.04,0000.92,0000.14,0000.12,0000.01,-000.11,-000.08,21.3,27.5,01.6,01.1,0669.0,31.6
2021-12-21T15:26:00Z,00000200,01000000,0000.73,-000.04,-000.41,0000.60,-000.09,0000.04,0000.07,-000.11,0000.32,21.3,27.5,01.6,01.1,0669.1,31.6
2021-12-21T15:27:00Z,00000200,01000000,0000.14,0000.01,0000.08,0000.82,-000.08,-000.01,-000.11,0000.14,0000.00,21.3,27.5,01.5,01.1,0669.1,31.6
2021-12-21T15:28:00Z,00000200,01000000,0000.59,0000.04,0000.16,0000.46,-000.12,0000.22,-000.28,-000.29,-000.34,21.4,27.6,01.4,01.0,0669.1,31.6
2021-12-21T15:29:00Z,00000200,01000000,0000.94,0000.01,-000.03,0000.46,0000.10,-000.03,0000.11,0000.04,0000.11,21.4,27.6,01.4,00.9,0669.1,31.6
2021-12-21T15:30:00Z,00000200,01000000,0000.80,0000.36,0000.08,0000.26,0000.19,0000.17,-000.38,-000.11,-000.40,21.4,27.6,01.4,01.0,0669.2,31.6
2021-12-21T15:31:00Z,00000200,01000000,0000.51,0000.20,0000.12,0000.83,0000.10,-000.17,0000.15,-000.18,0000.32,21.4,27.6,01.3,00.9,0669.2,31.6
2021-12-21T15:32:00Z,00000200,01000000,0000.78,0000.12,0000.18,-000.15,0000.28,0000.09,0000.07,-000.28,-000.30,21.4,27.6,01.2,00.8,0669.2,31.6
2021-12-21T15:33:00Z,00000200,01000000,0000.49,0000.21,-000.24,0000.48,-000.03,-000.07,-000.28,0000.02,0000.45,21.4,27.6,01.2,00.8,0669.2,31.6
2021-12-21T15:34:00Z,00000200,01000000,0000.77,0000.14,-000.10,0000.27,0000.09,0000.02,-000.08,0000.05,-000.25,21.3,27.6,01.1,00.8,0669.2,31.6
2021-12-21T15:35:00Z,00000200,01000000,0001.02,0000.17,0000.04,0000.80,-000.10,0000.12,-000.12,-000.18,-000.13,21.3,27.6,01.0,00.7,0669.2,31.6
2021-12-21T15:36:00Z,00000200,01000000,0000.98,-000.19,-000.13,0000.79,0000.21,-000.26,-000.34,-000.13,-000.21,21.3,27.6,01.0,00.7,0669.2,31.6
2021-12-21T15:37:00Z,00000200,01000000,0000.27,0000.33,-000.05,0000.29,-000.24,-000.13,-000.70,-001.27,-000.96,21.2,27.5,01.0,00.7,0669.2,31.6
2021-12-21T15:38:00Z,00000200,01000000,0000.28,-000.32,0000.36,0000.32,0000.24,0000.32,-000.49,-000.08,-000.24,21.2,27.5,00.9,00.6,0669.2,31.6
2021-12-21T15:39:00Z,00000200,01000000,0000.99,0000.11,0000.26,-000.12,0000.10,0000.19,0000.08,-000.08,0000.32,21.2,27.5,00.8,00.6,0669.2,31.6
2021-12-21T15:40:00Z,00000200,01000000,0000.56,0000.31,0000.15,0000.47,0000.31,-000.02,-000.73,-000.38,-000.45,21.1,27.5,00.7,00.5,0669.2,31.6
2021-12-21T15:41:00Z,00000200,01000000,0000.67,0000.00,-000.34,0000.59,0000.23,0000.01,0000.36,0000.03,0000.14,21.2,27.5,00.7,00.5,0669.2,31.6
2021-12-21T15:42:00Z,00000200,01000000,-000.23,0000.09,0000.16,0000.47,0000.00,0000.09,-000.13,0000.22,-000.06,21.2,27.5,00.6,00.4,0669.3,31.6
2021-12-21T15:43:00Z,00000200,01000000,0000.39,0000.46,0000.11,0000.15,0000.08,0000.17,-000.17,-000.34,-000.29,21.3,27.5,00.6,00.4,0669.3,31.6
2021-12-21T15:44:00Z,00000200,01000000,0000.58,0000.02,-000.05,0000.37,0000.04,0000.17,-000.22,-000.49,0000.21,21.4,27.6,00.5,00.3,0669.2,31.6
2021-12-21T15:45:00Z,00000200,01000000,0000.06,0000.08,0000.07,0000.09,-000.10,0000.05,-000.04,0000.11,-000.39,21.4,27.6,00.4,00.3,0669.2,31.6
2021-12-21T15:46:00Z,00000200,01000000,0000.95,0000.14,-000.15,0000.06,-000.18,-000.04,-000.39,-000.36,-000.15,21.4,27.6,00.4,00.3,0669.2,31.6
2021-12-21T15:47:00Z,00000200,01000000,0001.47,0000.09,0000.12,0000.24,0000.50,0000.07,-000.37,-000.21,-000.22,21.4,27.6,00.4,00.3,0669.2,31.6
2021-12-21T15:48:00Z,00000200,01000000,0000.47,0000.12,-000.15,0000.26,-000.01,0000.22,-000.03,0000.19,0000.17,21.4,27.6,00.3,00.2,0669.2,31.6
2021-12-21T15:49:00Z,00000200,01000000,0000.54,0000.06,0000.12,0000.70,0000.32,0000.17,-000.12,0000.02,-000.12,21.3,27.6,00.2,00.1,0669.2,31.6
2021-12-21T15:50:00Z,00000200,01000000,-000.03,0000.26,0000.05,0000.15,0000.42,-000.09,-000.16,-000.53,-000.14,21.3,27.6,00.2,00.1,0669.3,31.6
2021-12-21T15:51:00Z,00000200,01000000,0000.88,0000.20,-000.32,0000.93,0000.02,0000.13,0000.06,-000.10,0000.03,21.3,27.6,00.2,00.1,0669.3,31.6
2021-12-21T15:52:00Z,00000200,01000000,0001.51,0000.19,-000.13,0000.72,0000.33,-000.12,0000.09,0000.20,-000.00,21.2,27.5,00.2,00.2,0669.3,31.6
2021-12-21T15:53:00Z,00000200,01000000,0001.04,0000.07,0000.11,0000.92,0000.38,-000.22,-000.23,-000.14,-000.08,21.2,27.5,00.2,00.1,0669.3,31.6
2021-12-21T15:54:00Z,00000200,01000000,0000.64,0000.08,0000.11,-000.07,0000.32,0000.09,0000.05,0000.13,0000.21,21.2,27.5,00.1,00.1,0669.2,31.6
2021-12-21T15:55:00Z,00000200,01000000,0001.25,0000.29,0000.15,0000.67,0000.02,0000.13,0000.02,-000.11,-000.05,21.2,27.5,00.2,00.1,0669.2,31.6
2021-12-21T15:56:00Z,00000200,01000000,0001.26,0000.04,-000.40,0000.85,-000.06,-000.11,0000.21,0000.11,0000.37,21.2,27.5,00.1,00.1,0669.2,31.6
2021-12-21T15:57:00Z,00000200,41000000,,,,,,,0002.83,0002.74,0001.94,21.2,27.5,,00.0,0669.2,31.6
2021-12-21T15:58:00Z,00000200,61000000,,,,,,,-001.61,-001.32,-001.19,21.1,27.6,00.5,00.4,0668.3,31.6
2021-12-21T15:59:00Z,00000200,21000000,,,,,,,-001.01,-001.01,-000.88,21.1,27.7,00.2,00.2,0668.3,31.6
